Location: �bnet
(46.9957°N, 8.4908°E)
Time: 02:33:17
(UTC+00:00)

Cosmos 158 Rocket - Pass Details

Date: 11 May 2021
Orbit: 698 x 793 km, 74.0° (Epoch: 23 June)

Event Time Altitude Azimuth Distance (km) Brightness Sun altitude
Rises 21:38:22 0° 332° (NNW) 3,093 8.7 -20.8°
Reaches altitude 10° 21:40:45 10° 327° (NNW) 2,172 7.5 -21.0°
Maximum altitude 21:45:24 46° 255° (WSW) 950 4.5 -21.3°
Enters shadow 21:46:52 35° 211° (SSW) 1,133 4.6 -21.4°
